Flag for Mauritania Weather past 2 weeks in Nouakchott, Mauritania

Now
81 °F

Clear.


Feels Like: 80 °F
Forecast: 83 / 102 °F
Wind: 10 mph from Northeast

Location: Nouakchott Airport

Current Time: Jul 28, 2014 at 8:44:34 AM

Latest Report: Jul 28, 2014 at 8:00 AM


Visibility: 5 mi

Pressure: 29.83 "Hg

Humidity: 32%

Dew point: 48 °F

Location of NouakchottLocation

Historic Weather in Nouakchott — Graph

°F

Nouakchott temperature yesterday

Maximum temperature yesterday: 102 °F (at 12:30 PM)
Minimum temperature yesterday: 79 °F (at 4:30 AM)
Average temperature yesterday: 86 °F

Past Weeks' High & Low Weather Summary

 TemperatureHumidityPressure
High111 °F (Jul 13, 2:00 PM)94% (Jul 20, 6:30 AM)30.04 "Hg (Jul 20, 6:30 AM)
Low73 °F (Jul 16, 6:00 AM)10% (Jul 27, 12:30 PM)29.77 "Hg (Jul 13, 5:30 PM)
Average80 °F68%29.89 "Hg
* Reported Jul 13 8:00 AM — Jul 28 8:00 AM, Nouakchott, Weather by CustomWeather, © 2014

Note: Actual official high and low records may vary slightly from our data, if they occured in-between our weather recording intervals... More about our weather records

Advertising

Nouakchott weather history for previous 24 hours

 ConditionsComfort  
Time TempWeatherWind HumidityBarometerVisibility
8:00 AM
Jul 28
81 °FClear.10 mph32%29.83 "Hg5 mi
7:30 AM79 °FClear.8 mph37%29.83 "Hg5 mi
7:00 AM79 °FClear.10 mph37%29.80 "Hg5 mi
6:30 AM79 °FClear.12 mph39%29.80 "Hg5 mi
6:00 AM79 °FClear.12 mph37%29.80 "Hg5 mi
5:30 AM81 °FClear.14 mph37%29.80 "Hg5 mi
5:00 AM81 °FClear.13 mph34%29.80 "Hg5 mi
4:30 AM81 °FClear.13 mph37%29.77 "Hg5 mi
4:00 AM81 °FClear.13 mph37%29.77 "Hg5 mi
3:30 AM82 °FClear.13 mph40%29.77 "Hg5 mi
3:00 AM82 °FClear.14 mph42%29.80 "Hg5 mi
2:30 AM82 °FClear.9 mph42%29.80 "Hg5 mi
2:00 AM82 °FClear.10 mph45%29.80 "Hg5 mi
1:30 AM82 °FClear.10 mph48%29.80 "Hg5 mi
1:00 AM82 °FClear.12 mph51%29.80 "Hg5 mi
12:30 AM81 °FClear.8 mph66%29.83 "Hg5 mi
12:00 AM82 °FClear.10 mph62%29.83 "Hg4 mi
11:30 PM
Jul 27
82 °FClear.12 mph62%29.83 "Hg4 mi
11:00 PM81 °FClear.14 mph66%29.83 "Hg4 mi
10:30 PM81 °FClear.12 mph66%29.83 "Hg4 mi
10:00 PM81 °FClear.12 mph66%29.83 "Hg4 mi
9:30 PM82 °FClear.14 mph62%29.83 "Hg4 mi
9:00 PM82 °FClear.14 mph62%29.83 "Hg4 mi
8:30 PM82 °FClear.14 mph58%29.83 "Hg4 mi
8:00 PM84 °FClear.15 mph55%29.80 "Hg4 mi
7:30 PM84 °FClear.13 mph51%29.80 "Hg4 mi
7:00 PM86 °FClear.15 mph49%29.80 "Hg4 mi
6:30 PM86 °FClear.17 mph49%29.80 "Hg4 mi
6:00 PM86 °FClear.17 mph52%29.80 "Hg4 mi
5:30 PM86 °FClear.18 mph55%29.80 "Hg4 mi
5:00 PM88 °FClear.16 mph55%29.80 "Hg4 mi
4:30 PM88 °FClear.16 mph52%29.80 "Hg4 mi
4:00 PM90 °FClear.15 mph49%29.83 "Hg4 mi
3:30 PM91 °FClear.15 mph44%29.83 "Hg4 mi
3:00 PM93 °FClear.13 mph39%29.83 "Hg4 mi
2:30 PM93 °FClear.13 mph34%29.83 "Hg4 mi
2:00 PM93 °FClear.13 mph30%29.86 "Hg4 mi
1:30 PM93 °FClear.12 mph34%29.86 "Hg4 mi
1:00 PM95 °FClear.12 mph32%29.89 "Hg4 mi
12:30 PM102 °FClear.12 mph10%29.89 "Hg4 mi
12:00 PM100 °FClear.12 mph11%29.89 "Hg4 mi
11:30 AM99 °FClear.12 mph12%29.89 "Hg4 mi
11:00 AM97 °FClear.12 mph13%29.92 "Hg4 mi
10:30 AM95 °FClear.12 mph15%29.92 "Hg4 mi
10:00 AM91 °FClear.12 mph20%29.92 "Hg4 mi
9:30 AM88 °FClear.12 mph24%29.92 "Hg4 mi
9:00 AM86 °FClear.9 mph29%29.89 "Hg4 mi
8:30 AM82 °FClear.10 mph35%29.89 "Hg4 mi
8:00 AM81 °FClear.10 mph39%29.89 "Hg4 mi
Weather by CustomWeather, © 2014

See weather overviewHow to use our weather pages